Stations météo

réclame
Mon MeteoGroup
Murcia/Alcantarilla, Espagne (8429): Température de l'air & dewpoint: 10.12.2017 12:00:00 - 16.12.2017 12:00:00 (CET)Murcia/Alcantarilla, Espagne (8429): Vitesse du vent: 10.12.2017 12:00:00 - 16.12.2017 12:00:00 (CET)Murcia/Alcantarilla, Espagne (8429): Direction du vent: 10.12.2017 12:00:00 - 16.12.2017 12:00:00 (CET)Murcia/Alcantarilla, Espagne (8429): reduced air pressure: 10.12.2017 12:00:00 - 16.12.2017 12:00:00 (CET)Murcia/Alcantarilla, Espagne (8429): visibility: 10.12.2017 12:00:00 - 16.12.2017 12:00:00 (CET)
Date & Time tt [°C] td [°C] ff [km/h] ff [knt] dd ppp [hPa] vv [km]
16.12.2017 12:00:00 - - - - - - -
16.12.2017 11:00:00 - - - - - - -
16.12.2017 10:00:00 10,8 -0,6 13 7 NW 1018,9 60
16.12.2017 09:00:00 - - - - - - -
16.12.2017 08:00:00 - - - - - - -
16.12.2017 07:00:00 6,6 0,5 9 5 S 1016,4 70
16.12.2017 06:00:00 - - - - - - -
16.12.2017 05:00:00 - - - - - - -
16.12.2017 04:00:00 - - - - - - -
16.12.2017 03:00:00 - - - - - - -
16.12.2017 02:00:00 - - - - - - -
16.12.2017 01:00:00 - - - - - - -
16.12.2017 00:00:00 - - - - - - -
15.12.2017 23:00:00 - - - - - - -
15.12.2017 22:00:00 - - - - - - -
15.12.2017 21:00:00 - - - - - - -
15.12.2017 20:00:00 - - - - - - -
15.12.2017 19:00:00 - - - - - - -
15.12.2017 18:00:00 - - - - - - -
15.12.2017 17:00:00 - - - - - - -
15.12.2017 16:00:00 19,4 8,4 9 5 SW 1008,8 50
15.12.2017 15:00:00 - - - - - - -
15.12.2017 14:00:00 - - - - - - -
15.12.2017 13:00:00 21,7 4,3 2 1 N 1010,4 50
15.12.2017 12:00:00 - - - - - - -
15.12.2017 11:00:00 - - - - - - -
15.12.2017 10:00:00 15,5 8,7 9 5 WSW 1012,4 50
15.12.2017 09:00:00 - - - - - - -
15.12.2017 08:00:00 - - - - - - -
15.12.2017 07:00:00 11,0 7,3 5 3 WNW 1012,7 50
15.12.2017 06:00:00 - - - - - - -
15.12.2017 05:00:00 - - - - - - -
15.12.2017 04:00:00 - - - - - - -
15.12.2017 03:00:00 - - - - - - -
15.12.2017 02:00:00 - - - - - - -
15.12.2017 01:00:00 - - - - - - -
15.12.2017 00:00:00 - - - - - - -
14.12.2017 23:00:00 - - - - - - -
14.12.2017 22:00:00 - - - - - - -
14.12.2017 21:00:00 - - - - - - -
14.12.2017 20:00:00 - - - - - - -
14.12.2017 19:00:00 15,1 5,0 9 5 SW 1018,2 40
14.12.2017 18:00:00 - - - - - - -
14.12.2017 17:00:00 - - - - - - -
14.12.2017 16:00:00 18,6 4,0 4 2 N 1018,7 40
14.12.2017 15:00:00 - - - - - - -
14.12.2017 14:00:00 - - - - - - -
14.12.2017 13:00:00 15,0 1,9 2 1 SSE 1021,0 40
14.12.2017 12:00:00 - - - - - - -
14.12.2017 11:00:00 - - - - - - -
14.12.2017 10:00:00 6,6 1,1 4 2 N 1023,2 8
14.12.2017 09:00:00 - - - - - - -
14.12.2017 08:00:00 - - - - - - -
14.12.2017 07:00:00 2,4 0,3 9 5 SW 1024,0 50
14.12.2017 06:00:00 - - - - - - -
14.12.2017 05:00:00 - - - - - - -
14.12.2017 04:00:00 - - - - - - -
14.12.2017 03:00:00 - - - - - - -
14.12.2017 02:00:00 - - - - - - -
14.12.2017 01:00:00 - - - - - - -
14.12.2017 00:00:00 - - - - - - -
13.12.2017 23:00:00 - - - - - - -
13.12.2017 22:00:00 - - - - - - -
13.12.2017 21:00:00 - - - - - - -
13.12.2017 20:00:00 - - - - - - -
13.12.2017 19:00:00 9,8 2,6 9 5 SW 1026,1 70
13.12.2017 18:00:00 - - - - - - -
13.12.2017 17:00:00 - - - - - - -
13.12.2017 16:00:00 16,0 -3,0 9 5 SW 1026,2 70
13.12.2017 15:00:00 - - - - - - -
13.12.2017 14:00:00 - - - - - - -
13.12.2017 13:00:00 14,0 -1,2 2 1 N 1027,9 75
13.12.2017 12:00:00 - - - - - - -
13.12.2017 11:00:00 - - - - - - -
13.12.2017 10:00:00 5,2 -0,8 4 2 N 1029,5 70
13.12.2017 09:00:00 - - - - - - -
13.12.2017 08:00:00 - - - - - - -
13.12.2017 07:00:00 1,8 -1,6 4 2 N 1027,9 75
13.12.2017 06:00:00 - - - - - - -
13.12.2017 05:00:00 - - - - - - -
13.12.2017 04:00:00 - - - - - - -
13.12.2017 03:00:00 - - - - - - -
13.12.2017 02:00:00 - - - - - - -
13.12.2017 01:00:00 - - - - - - -
13.12.2017 00:00:00 - - - - - - -
12.12.2017 23:00:00 - - - - - - -
12.12.2017 22:00:00 - - - - - - -
12.12.2017 21:00:00 - - - - - - -
12.12.2017 20:00:00 - - - - - - -
12.12.2017 19:00:00 11,6 -3,3 18 10 NNW 1020,0 50
12.12.2017 18:00:00 - - - - - - -
12.12.2017 17:00:00 - - - - - - -
12.12.2017 16:00:00 14,2 -3,1 13 7 NNW 1017,0 50
12.12.2017 15:00:00 - - - - - - -
12.12.2017 14:00:00 - - - - - - -
12.12.2017 13:00:00 13,2 -1,2 16 9 W 1015,8 50
12.12.2017 12:00:00 - - - - - - -
12.12.2017 11:00:00 - - - - - - -
12.12.2017 10:00:00 7,3 4,3 5 3 SSW 1015,1 50
12.12.2017 09:00:00 - - - - - - -
12.12.2017 08:00:00 - - - - - - -
12.12.2017 07:00:00 3,2 2,2 2 1 N 1012,2 50
12.12.2017 06:00:00 - - - - - - -
12.12.2017 05:00:00 - - - - - - -
12.12.2017 04:00:00 - - - - - - -
12.12.2017 03:00:00 - - - - - - -
12.12.2017 02:00:00 - - - - - - -
12.12.2017 01:00:00 - - - - - - -
12.12.2017 00:00:00 - - - - - - -
11.12.2017 23:00:00 - - - - - - -
11.12.2017 22:00:00 - - - - - - -
11.12.2017 21:00:00 - - - - - - -
11.12.2017 20:00:00 - - - - - - -
11.12.2017 19:00:00 10,8 3,8 11 6 WNW 1003,7 50
11.12.2017 18:00:00 - - - - - - -
11.12.2017 17:00:00 - - - - - - -
11.12.2017 16:00:00 13,5 5,2 11 6 W 999,4 50
11.12.2017 15:00:00 - - - - - - -
11.12.2017 14:00:00 - - - - - - -
11.12.2017 13:00:00 11,9 8,4 15 8 W 998,9 50
11.12.2017 12:00:00 - - - - - - -
11.12.2017 11:00:00 - - - - - - -
11.12.2017 10:00:00 14,2 7,3 34 18 N 996,7 10
11.12.2017 09:00:00 - - - - - - -
11.12.2017 08:00:00 - - - - - - -
11.12.2017 07:00:00 16,6 9,8 21 11 S 994,7 50
11.12.2017 06:00:00 - - - - - - -
11.12.2017 05:00:00 - - - - - - -
11.12.2017 04:00:00 - - - - - - -
11.12.2017 03:00:00 - - - - - - -
11.12.2017 02:00:00 - - - - - - -
11.12.2017 01:00:00 - - - - - - -
11.12.2017 00:00:00 - - - - - - -
10.12.2017 23:00:00 - - - - - - -
10.12.2017 22:00:00 - - - - - - -
10.12.2017 21:00:00 - - - - - - -
10.12.2017 20:00:00 - - - - - - -
10.12.2017 19:00:00 16,2 5,5 5 3 SW 1011,0 50
10.12.2017 18:00:00 - - - - - - -
10.12.2017 17:00:00 - - - - - - -
10.12.2017 16:00:00 21,6 3,8 18 10 W 1012,7 50
10.12.2017 15:00:00 - - - - - - -
10.12.2017 14:00:00 - - - - - - -
10.12.2017 13:00:00 20,8 7,8 9 5 SE 1016,3 40
10.12.2017 12:00:00 - - - - - - -

tt = Température de l'air
td = dewpoint
ff = Vitesse du vent
dd = Direction du vent
ppp = reduced air pressure
vv = visibility

stations d'obs. à proximité